Wind_Speed
14 13 14 10 10 11 10 8 8 5 5 10 17 8 14 8 8 4 4 5 7 7 12 12 10 8 6 4 4 4 5 5 6 7 8 10 10 9 8 12 7 9 12 13
8 14 3 5 6 7 9 11 12 11 4 9 16 10 4 3 4 5 2 5 9 9 8 10 11 8 6 3 3 4 5 6 7 8 7 7 9 11 13 11 8 10 9 13
17 9 6 3 6 11 7 8 11 14 14 15 9 19 8 9 8 4 2 3 4 7 9 11 12 8 7 6 4 4 5 6 7 6 7 8 8 11 10 6 12 10 12 16
10 10 3 7 6 7 5 9 10 12 12 9 3 8 10 4 9 7 6 9 11 8 5 4 1 3 6 5 4 4 4 5 6 5 6 6 9 10 9 14 14 13 16 17
2 4 8 12 13 6 10 11 9 11 12 9 2 9 4 4 7 7 4 2 0 1 4 3 8 5 2 3 5 5 5 5 3 4 4 6 8 10 12 13 14 16 15 14
5 6 3 12 3 4 8 14 13 10 11 6 6 6 6 6 12 4 3 4 4 6 4 4 6 2 5 1 2 4 4 4 4 5 6 6 7 8 10 12 15 16 18 19
6 11 6 4 11 8 10 12 6 5 3 3 6 6 13 8 7 6 10 10 8 8 2 2 6 6 3 0 1 1 3 4 4 6 6 6 6 8 11 13 15 17 19 19
10 10 11 4 6 11 10 8 7 9 9 11 9 3 7 5 3 4 7 8 8 13 5 2 4 3 6 5 1 3 4 5 5 7 6 5 5 8 11 13 15 17 18 19
3 5 8 3 2 6 7 3 5 8 11 10 3 3 6 4 2 1 9 8 11 9 3 5 1 1 6 4 2 5 7 7 8 7 6 6 6 12 14 13 14 18 19 17
4 4 5 9 5 6 16 8 2 6 5 11 14 7 2 9 14 16 15 15 13 10 9 2 3 4 4 6 6 6 8 11 9 8 9 6 6 7 13 15 17 18 18 15
6 5 5 8 8 12 9 4 5 4 2 9 10 12 12 10 12 12 14 14 13 8 7 5 5 5 3 9 10 12 11 12 13 10 6 10 9 9 14 17 18 18 15 17
2 4 5 2 9 10 7 8 5 6 13 10 10 4 12 12 12 10 11 9 12 10 8 8 7 7 7 8 12 17 15 14 16 6 9 8 11 14 16 17 18 14 15 17
1 6 9 6 8 13 6 5 5 1 7 13 10 7 13 9 10 9 9 9 9 3 11 11 14 13 13 13 15 14 16 17 10 10 9 11 14 16 18 17 12 13 15 16
1 6 10 11 7 9 8 2 3 4 9 12 12 17 15 10 10 10 10 9 10 9 11 13 12 18 21 20 22 21 20 9 11 11 11 14 16 17 17 11 14 15 15 16
3 8 7 7 8 8 8 12 8 10 12 10 11 14 13 9 8 6 8 9 11 15 14 12 13 16 19 19 20 20 12 13 9 10 13 15 16 16 14 13 14 20 16 15
3 5 7 10 6 8 10 12 13 9 6 11 10 13 6 14 7 11 9 9 12 13 14 15 14 17 19 20 20 20 13 8 9 12 14 15 16 15 15 17 17 18 18 15
3 4 5 13 3 8 12 7 8 8 9 15 15 13 9 8 8 8 8 12 13 12 12 13 14 20 20 20 20 14 9 9 11 13 14 15 17 17 17 17 17 16 16 13
5 6 8 8 8 13 6 4 4 6 8 11 13 9 7 6 5 14 19 18 11 11 12 15 20 21 19 17 15 9 8 10 12 13 14 16 15 16 17 15 14 13 12 11
5 6 7 4 9 13 7 8 1 5 11 13 7 9 7 5 1 12 3 4 8 11 15 18 21 20 16 15 11 8 9 11 12 12 14 13 15 15 14 12 14 11 9 8
5 5 7 9 12 13 10 6 5 7 8 10 7 6 9 9 6 2 4 7 11 14 17 20 20 18 15 12 9 8 11 11 12 13 12 13 14 13 12 11 10 9 10 10
6 5 10 9 9 6 10 7 5 6 4 5 6 5 5 6 6 4 6 9 12 15 19 19 18 16 13 9 7 9 10 11 10 10 9 12 13 10 11 9 9 11 10 11
7 7 8 7 6 11 11 5 6 4 1 3 3 5 5 5 3 4 8 9 14 16 19 19 18 15 10 8 8 9 10 9 10 8 10 11 10 11 10 9 10 9 7 9
7 4 6 6 6 4 3 5 2 3 4 1 2 3 3 2 5 6 7 10 13 16 17 18 17 13 8 6 9 10 9 10 10 9 9 8 8 8 9 8 9 10 7 7
7 7 6 7 6 7 3 7 2 3 2 2 4 2 0 5 5 8 10 11 13 16 15 17 15 11 6 6 8 8 9 10 7 7 7 8 7 6 9 10 9 8 10 12
6 4 4 7 12 11 8 4 3 5 2 3 3 3 3 3 7 9 10 12 13 14 14 15 12 8 5 5 7 8 9 8 6 6 7 8 3 6 4 8 10 10 10 8
7 7 8 8 7 5 6 2 3 2 4 5 5 3 3 6 8 11 11 13 14 15 13 14 11 5 4 6 7 7 8 7 7 11 8 11 7 5 4 4 5 9 8 8
Wind_Direction
208 240 246 19 3 347 331 312 302 88 100 285 301 298 284 27 300 266 248 213 187 193 148 161 195 186 178 170 185 206 213 221 230 241 256 259 256 294 283 295 295 287 299 305
205 238 7 7 336 303 279 296 28 304 88 298 288 294 65 29 10 340 295 169 178 166 157 167 186 191 193 194 203 217 237 232 234 245 254 296 309 302 296 289 277 280 295 303
250 33 40 272 225 263 275 349 351 322 317 266 279 272 139 130 115 110 176 85 138 177 173 170 179 199 205 204 215 230 242 235 230 255 271 265 272 266 275 317 300 322 311 305
264 75 259 238 233 319 10 6 322 311 306 319 323 282 121 100 111 116 158 177 162 149 170 139 304 198 206 247 191 219 224 220 224 228 265 286 294 288 322 299 314 313 301 301
190 176 208 240 47 360 3 327 301 292 273 296 104 310 84 222 142 119 133 130 206 207 138 96 160 159 208 121 205 181 191 195 199 217 260 271 273 310 314 316 314 306 299 313
101 29 312 68 82 302 289 266 265 262 246 193 3 332 76 44 11 34 153 230 237 264 138 136 131 180 195 140 345 162 185 194 213 236 244 252 281 294 315 319 314 314 320 315
171 187 100 271 271 81 326 335 327 264 251 24 58 279 72 49 28 340 338 327 296 253 254 41 178 158 92 349 287 252 193 225 230 240 242 254 280 304 303 317 319 326 316 316
215 166 179 132 327 339 23 314 27 317 342 319 50 7 117 84 35 321 313 306 293 290 316 26 47 65 331 33 281 233 248 283 253 257 262 278 290 303 314 327 322 316 313 316
278 128 106 23 281 299 229 28 358 301 268 285 147 34 77 202 7 351 322 288 289 295 351 308 358 113 331 350 263 280 297 294 276 275 279 292 334 326 317 322 315 315 315 314
359 279 149 125 228 65 312 12 316 326 320 332 340 348 350 11 10 351 332 328 341 6 301 8 342 90 338 306 289 254 309 300 294 277 273 288 311 336 314 317 319 318 309 310
317 259 12 184 222 158 216 154 275 311 347 319 317 326 44 5 351 350 339 338 325 351 13 38 41 27 344 319 322 327 310 306 287 281 314 312 318 326 321 321 321 313 317 306
134 304 329 318 254 346 299 340 343 343 343 320 281 336 27 8 9 22 343 16 32 360 360 340 357 3 321 332 336 339 336 308 310 26 332 309 318 325 330 325 318 334 318 315
152 231 266 233 120 19 319 283 339 244 271 303 303 304 23 29 22 24 16 6 330 349 28 345 3 346 27 7 345 325 324 325 10 339 326 319 334 333 329 326 345 328 324 331
314 269 278 297 168 193 228 199 230 317 280 327 322 336 325 29 18 3 356 342 345 6 28 19 1 358 351 351 357 345 345 10 331 325 325 338 337 335 333 4 337 337 337 330
250 254 246 299 329 298 313 302 320 316 324 316 325 318 359 19 350 10 16 357 3 20 15 3 4 0 345 355 344 348 349 347 351 343 340 349 342 342 4 352 340 326 326 322
187 275 291 292 221 281 295 298 284 267 313 311 317 308 98 315 5 25 359 0 16 13 10 5 355 355 351 348 344 344 2 13 3 355 352 352 352 3 354 342 341 346 352 360
242 278 247 277 117 304 280 311 359 332 329 343 319 336 330 358 17 354 21 28 21 14 4 358 352 351 346 346 343 353 10 6 2 360 360 2 6 358 354 4 0 1 1 5
250 241 277 270 275 278 65 238 336 334 286 305 317 342 3 9 7 44 31 18 15 14 356 354 350 339 354 346 345 350 4 2 3 7 7 13 4 8 9 6 13 8 8 1
283 260 280 268 273 302 347 39 215 318 320 312 352 4 350 345 97 56 337 10 18 4 354 352 342 347 1 348 347 1 357 11 9 10 19 9 10 16 0 12 10 14 8 11
215 253 271 284 291 288 42 145 15 324 304 31 8 22 9 328 58 205 35 19 10 358 355 354 347 349 359 352 358 2 13 13 15 20 12 13 19 11 7 13 10 13 10 31
242 258 260 271 291 288 50 41 352 304 29 20 11 25 13 31 43 48 17 10 355 350 357 350 352 355 359 355 353 22 14 18 14 20 16 25 27 359 21 22 30 18 31 47
269 302 287 264 300 290 24 340 352 39 272 312 36 24 73 81 60 19 6 348 355 352 356 352 353 354 9 2 1 30 19 6 29 18 16 30 22 5 17 16 14 27 33 47
260 292 327 350 326 357 313 331 30 285 280 23 16 66 82 33 23 3 341 356 354 354 353 354 353 2 25 26 25 18 16 11 21 15 15 38 22 18 9 18 20 18 21 36
198 166 249 271 257 309 12 300 239 218 281 97 117 139 72 28 354 348 349 358 353 353 352 353 356 4 37 25 26 20 14 27 19 1 12 33 20 19 20 16 29 35 38 26
36 130 215 272 263 259 249 220 337 159 177 167 153 126 76 6 357 358 355 358 348 345 350 352 359 4 28 19 22 19 14 27 14 335 359 30 41 1 37 33 31 44 42 42
262 242 267 284 357 325 317 124 148 203 202 195 162 153 61 3 2 359 356 348 352 334 346 349 349 4 8 10 20 16 19 17 360 312 34 23 19 35 351 66 80 58 62 54
Height
777 786 788 783 776 778 782 786 790 780 777 788 782 784 773 770 775 773 778 780 784 787 793 804 810 812 816 820 822 824 825 827 828 828 828 826 822 826 826 826 827 830 830 829
784 795 772 773 776 783 784 789 800 781 778 788 782 782 770 777 780 780 779 781 784 788 793 803 808 811 815 817 820 822 824 825 827 826 826 827 828 827 826 826 826 826 826 825
788 782 773 781 786 790 789 798 801 802 785 774 785 786 782 777 776 781 781 780 783 785 788 794 801 807 811 815 819 821 823 824 825 826 825 825 825 823 823 822 823 822 823 822
780 773 784 787 788 791 802 789 792 795 799 804 782 811 788 784 784 782 785 783 782 786 790 793 800 803 806 811 814 819 821 823 823 824 824 824 825 823 821 821 820 820 820 818
788 787 791 792 793 790 800 789 793 792 795 795 796 798 805 784 788 788 783 783 783 783 783 787 795 801 805 809 811 816 819 821 822 823 823 823 822 820 820 818 818 817 813 813
780 771 778 784 787 789 786 787 783 787 784 813 804 807 809 801 793 785 781 781 780 780 783 786 792 800 802 806 809 813 818 819 820 821 821 821 820 819 818 817 816 813 812 810
793 790 783 783 793 786 788 801 812 826 819 819 794 805 807 792 787 788 787 781 776 774 780 783 783 794 801 804 809 811 815 817 818 818 818 818 818 818 817 815 812 813 809 808
807 818 794 787 795 802 800 805 829 855 836 819 791 817 807 786 784 784 784 783 781 778 777 782 787 794 798 803 809 812 812 814 815 815 816 816 816 815 813 812 813 811 808 806
804 807 785 788 788 795 809 840 804 826 809 818 806 792 779 784 781 781 780 778 777 775 780 784 790 796 802 805 808 811 810 811 812 813 815 815 816 816 815 812 811 808 806 804
793 817 790 794 790 795 803 798 822 817 846 853 819 808 835 802 798 792 791 785 781 781 781 783 789 794 804 806 807 809 810 809 809 811 811 811 812 809 812 811 807 806 803 801
791 807 825 797 804 820 812 831 814 814 824 845 840 819 791 800 796 798 796 790 786 782 783 787 793 798 804 806 805 807 807 808 807 809 811 813 812 810 811 808 805 803 801 799
792 805 821 843 796 791 796 807 813 838 843 827 827 827 791 795 795 796 799 791 793 795 793 793 795 799 802 804 805 806 809 809 808 809 811 813 813 810 808 806 804 802 800 797
797 813 829 818 811 826 832 804 811 818 826 836 838 825 785 790 797 796 799 797 794 795 794 798 798 800 803 806 807 809 809 808 810 810 812 812 811 810 807 805 803 801 798 796
808 809 819 828 832 813 825 808 807 821 838 830 825 820 804 799 804 802 804 801 797 796 799 802 806 805 806 807 808 809 808 809 811 811 811 810 811 809 806 804 802 800 797 794
805 820 807 802 804 806 807 809 807 817 817 834 825 821 807 804 806 802 802 802 801 802 806 808 810 812 812 812 813 812 811 812 812 812 811 811 811 808 807 805 803 799 796 792
804 818 812 814 805 810 816 808 806 809 812 817 816 819 816 803 797 804 806 807 809 812 812 814 815 815 815 816 815 814 814 815 815 814 812 812 810 810 808 805 802 798 795 791
810 810 822 829 809 816 828 810 809 811 809 816 828 813 804 807 809 812 811 811 816 819 820 819 818 818 817 818 816 816 817 817 817 815 814 812 813 811 808 805 802 799 795 792
812 816 814 827 817 848 808 797 803 814 816 809 809 807 808 809 811 813 820 825 825 825 825 823 822 820 819 819 818 818 818 818 817 817 815 815 815 810 809 807 804 800 796 794
805 812 822 832 828 812 802 812 819 820 824 808 809 809 809 806 809 832 836 828 829 830 827 826 824 821 821 821 821 820 819 818 819 818 818 818 814 813 811 808 805 802 800 797
806 809 822 823 837 841 820 806 804 807 834 813 811 813 815 815 844 844 829 830 831 830 828 828 825 823 823 823 822 821 820 821 821 820 820 817 816 815 812 810 807 805 802 799
822 819 822 820 827 815 809 807 803 838 843 818 816 818 819 824 829 829 829 831 831 830 829 828 825 823 825 825 823 822 823 823 822 823 821 819 818 816 814 811 809 807 805 802
816 822 821 822 828 840 809 810 830 828 820 819 819 822 824 826 828 829 829 830 830 829 829 828 825 823 826 827 825 825 826 825 824 825 822 820 821 818 816 813 811 809 807 805
825 812 823 824 821 813 811 818 816 819 820 819 821 824 825 827 827 828 829 829 831 830 830 829 827 825 828 828 828 827 828 826 827 826 824 822 822 820 818 815 814 812 810 807
800 803 818 822 813 810 811 812 814 817 819 821 823 825 826 828 830 829 829 830 832 832 831 830 828 826 828 829 829 829 829 828 829 828 825 824 823 821 819 816 814 813 813 811
799 809 813 818 810 807 807 808 812 816 820 822 825 826 829 830 830 830 831 832 833 833 831 831 829 829 830 830 831 830 830 830 830 828 825 824 824 822 821 820 818 817 816 815
795 804 815 815 806 812 810 809 814 817 820 821 826 829 831 832 832 833 834 834 834 834 831 832 830 830 831 831 831 832 831 832 831 828 825 825 825 823 821 821 821 820 819 817